PIMOHWEATHER Station Historical Data
Daily Summary for May 05, 2020 Units:  Metric    English   Both
Daily Weekly Monthly Yearly
  High: Low: Average:
Temperature: 39.0 °C 28.0 °C 32.7 °C
Dew Point: 28.0 °C 25.0 °C 26.2 °C
Humidity: 83% 48% 70%
Wind Speed: 30km/h 0km/h 9.6km/h
Wind Gust: 32km/h - -
Wind- - SSE
Pressure: 1009.8 hPa 1005.1 hPa -
Precipitation: 0.00 mm    
 
 
Tabular Data for May 05, 2020
Time Temperature Dew Point Pressure Wind Wind Speed Wind Gust Humidity Rainfall Rate (Hourly) solar
00:04 30.0 °C 25.0 °C 1008.8 hPa NNW 5 km/h 8 km/h 75% 0.00 mm 0.00 W/m2
00:09 30.0 °C 25.0 °C 1008.8 hPa NNW 5 km/h 8 km/h 75% 0.00 mm 0.00 W/m2
00:14 30.0 °C 25.0 °C 1008.5 hPa North 5 km/h 8 km/h 75% 0.00 mm 0.00 W/m2
00:19 30.0 °C 25.0 °C 1008.5 hPa North 6 km/h 8 km/h 75% 0.00 mm 0.00 W/m2
00:24 30.0 °C 25.0 °C 1008.8 hPa North 5 km/h 8 km/h 75% 0.00 mm 0.00 W/m2
00:29 30.0 °C 26.0 °C 1008.8 hPa North 8 km/h 8 km/h 76% 0.00 mm 0.00 W/m2
00:34 30.0 °C 25.0 °C 1008.5 hPa North 12 km/h 12 km/h 77% 0.00 mm 0.00 W/m2
00:39 30.0 °C 25.0 °C 1008.5 hPa North 7 km/h 8 km/h 77% 0.00 mm 0.00 W/m2
00:44 30.0 °C 25.0 °C 1008.5 hPa North 7 km/h 8 km/h 77% 0.00 mm 0.00 W/m2
00:49 30.0 °C 25.0 °C 1008.5 hPa North 5 km/h 8 km/h 77% 0.00 mm 0.00 W/m2
00:54 30.0 °C 25.0 °C 1008.5 hPa NNW 8 km/h 8 km/h 77% 0.00 mm 0.00 W/m2
00:59 30.0 °C 26.0 °C 1008.5 hPa North 7 km/h 8 km/h 78% 0.00 mm 0.00 W/m2
01:04 30.0 °C 26.0 °C 1008.1 hPa NNE 9 km/h 12 km/h 78% 0.00 mm 0.00 W/m2
01:09 30.0 °C 26.0 °C 1008.1 hPa North 6 km/h 8 km/h 78% 0.00 mm 0.00 W/m2
01:14 30.0 °C 25.0 °C 1008.1 hPa North 5 km/h 8 km/h 78% 0.00 mm 0.00 W/m2
01:19 30.0 °C 26.0 °C 1008.1 hPa NW 3 km/h 4 km/h 79% 0.00 mm 0.00 W/m2
01:24 30.0 °C 25.0 °C 1007.8 hPa North 5 km/h 8 km/h 78% 0.00 mm 0.00 W/m2
01:29 30.0 °C 25.0 °C 1007.8 hPa North 3 km/h 4 km/h 78% 0.00 mm 0.00 W/m2
01:34 30.0 °C 26.0 °C 1007.8 hPa NNE 7 km/h 8 km/h 79% 0.00 mm 0.00 W/m2
01:39 30.0 °C 26.0 °C 1007.8 hPa NNW 5 km/h 8 km/h 79% 0.00 mm 0.00 W/m2
01:44 30.0 °C 26.0 °C 1007.8 hPa North 7 km/h 8 km/h 79% 0.00 mm 0.00 W/m2
01:49 30.0 °C 26.0 °C 1007.8 hPa North 6 km/h 8 km/h 79% 0.00 mm 0.00 W/m2
01:54 30.0 °C 26.0 °C 1007.5 hPa NNE 2 km/h 4 km/h 79% 0.00 mm 0.00 W/m2
01:59 30.0 °C 26.0 °C 1007.8 hPa Calm     79% 0.00 mm 0.00 W/m2
02:04 30.0 °C 26.0 °C 1007.8 hPa NNW 1 km/h 4 km/h 79% 0.00 mm 0.00 W/m2
02:09 30.0 °C 26.0 °C 1007.8 hPa NNW 3 km/h 4 km/h 79% 0.00 mm 0.00 W/m2
02:14 30.0 °C 26.0 °C 1007.8 hPa NNW 2 km/h 4 km/h 79% 0.00 mm 0.00 W/m2
02:19 29.0 °C 25.0 °C 1007.8 hPa Calm     79% 0.00 mm 0.00 W/m2
02:24 29.0 °C 25.0 °C 1007.8 hPa Calm     79% 0.00 mm 0.00 W/m2
02:29 29.0 °C 25.0 °C 1007.8 hPa Calm     79% 0.00 mm 0.00 W/m2
02:34 29.0 °C 25.0 °C 1007.8 hPa Calm     79% 0.00 mm 0.00 W/m2
02:39 29.0 °C 25.0 °C 1007.8 hPa Calm     79% 0.00 mm 0.00 W/m2
02:44 29.0 °C 26.0 °C 1007.8 hPa Calm     80% 0.00 mm 0.00 W/m2
02:49 30.0 °C 26.0 °C 1007.5 hPa Calm     80% 0.00 mm 0.00 W/m2
02:54 30.0 °C 26.0 °C 1007.5 hPa Calm     79% 0.00 mm 0.00 W/m2
02:59 30.0 °C 26.0 °C 1007.8 hPa Calm     79% 0.00 mm 0.00 W/m2
03:04 30.0 °C 26.0 °C 1007.8 hPa Calm     79% 0.00 mm 0.00 W/m2
03:09 30.0 °C 26.0 °C 1007.8 hPa Calm     79% 0.00 mm 0.00 W/m2
03:14 30.0 °C 26.0 °C 1007.8 hPa Calm     79% 0.00 mm 0.00 W/m2
03:19 29.0 °C 25.0 °C 1007.5 hPa Calm     79% 0.00 mm 0.00 W/m2
03:24 29.0 °C 25.0 °C 1007.5 hPa Calm     79% 0.00 mm 0.00 W/m2
03:29 29.0 °C 25.0 °C 1007.5 hPa Calm     79% 0.00 mm 0.00 W/m2
03:34 29.0 °C 25.0 °C 1007.5 hPa Calm     79% 0.00 mm 0.00 W/m2
03:39 29.0 °C 25.0 °C 1007.5 hPa Calm     79% 0.00 mm 0.00 W/m2
03:44 29.0 °C 25.0 °C 1007.5 hPa Calm     79% 0.00 mm 0.00 W/m2
03:49 29.0 °C 25.0 °C 1007.5 hPa Calm     79% 0.00 mm 0.00 W/m2
03:54 29.0 °C 25.0 °C 1007.5 hPa Calm   4 km/h 79% 0.00 mm 0.00 W/m2
03:59 29.0 °C 25.0 °C 1007.5 hPa North 4 km/h 4 km/h 79% 0.00 mm 0.00 W/m2
04:04 29.0 °C 25.0 °C 1007.5 hPa North 4 km/h 8 km/h 80% 0.00 mm 0.00 W/m2
04:09 29.0 °C 25.0 °C 1007.5 hPa NNW 7 km/h 8 km/h 80% 0.00 mm 0.00 W/m2
04:14 29.0 °C 25.0 °C 1007.5 hPa NW 6 km/h 8 km/h 80% 0.00 mm 0.00 W/m2
04:19 29.0 °C 25.0 °C 1007.5 hPa North 2 km/h 4 km/h 80% 0.00 mm 0.00 W/m2
04:24 29.0 °C 25.0 °C 1007.8 hPa NNW 3 km/h 4 km/h 80% 0.00 mm 0.00 W/m2
04:29 29.0 °C 25.0 °C 1007.5 hPa WNW 5 km/h 8 km/h 81% 0.00 mm 0.00 W/m2
04:34 29.0 °C 25.0 °C 1007.8 hPa Calm     81% 0.00 mm 0.00 W/m2
04:39 29.0 °C 25.0 °C 1007.8 hPa Calm     81% 0.00 mm 0.00 W/m2
04:44 29.0 °C 25.0 °C 1007.5 hPa Calm     81% 0.00 mm 0.00 W/m2
04:49 29.0 °C 25.0 °C 1007.5 hPa Calm     81% 0.00 mm 0.00 W/m2
04:54 29.0 °C 25.0 °C 1007.5 hPa Calm     81% 0.00 mm 0.00 W/m2
04:59 29.0 °C 25.0 °C 1007.5 hPa Calm     81% 0.00 mm 0.00 W/m2
05:04 29.0 °C 25.0 °C 1007.5 hPa North 8 km/h 8 km/h 82% 0.00 mm 0.00 W/m2
05:09 29.0 °C 25.0 °C 1007.5 hPa North 7 km/h 8 km/h 82% 0.00 mm 0.00 W/m2
05:14 29.0 °C 25.0 °C 1007.5 hPa NNW 8 km/h 12 km/h 82% 0.00 mm 0.00 W/m2
05:19 29.0 °C 25.0 °C 1007.8 hPa North 9 km/h 12 km/h 83% 0.00 mm 0.00 W/m2
05:24 29.0 °C 25.0 °C 1007.5 hPa NNE 9 km/h 16 km/h 83% 0.00 mm 0.00 W/m2
05:29 28.0 °C 25.0 °C 1007.8 hPa North 7 km/h 8 km/h 83% 0.00 mm 0.22 W/m2
05:34 28.0 °C 25.0 °C 1007.8 hPa North 4 km/h 4 km/h 83% 0.00 mm 2.85 W/m2
05:39 28.0 °C 25.0 °C 1007.8 hPa North 3 km/h 4 km/h 83% 0.00 mm 5.49 W/m2
05:44 28.0 °C 25.0 °C 1008.1 hPa NNE 9 km/h 12 km/h 83% 0.00 mm 9.66 W/m2
05:49 28.0 °C 25.0 °C 1007.8 hPa North 10 km/h 12 km/h 83% 0.00 mm 13.24 W/m2
05:54 28.0 °C 25.0 °C 1007.8 hPa North 5 km/h 8 km/h 83% 0.00 mm 18.82 W/m2
05:59 28.0 °C 25.0 °C 1008.1 hPa NNE 8 km/h 8 km/h 83% 0.00 mm 23.47 W/m2
06:04 28.0 °C 25.0 °C 1007.8 hPa NNE 7 km/h 8 km/h 83% 0.00 mm 29.77 W/m2
06:09 29.0 °C 25.0 °C 1008.1 hPa Calm     82% 0.00 mm 33.16 W/m2
06:14 29.0 °C 25.0 °C 1008.1 hPa Calm     82% 0.00 mm 38.36 W/m2
06:19 29.0 °C 25.0 °C 1008.1 hPa Calm     81% 0.00 mm 41.57 W/m2
06:24 29.0 °C 25.0 °C 1008.1 hPa North 5 km/h 8 km/h 80% 0.00 mm 168.79 W/m2
06:29 29.0 °C 25.0 °C 1008.1 hPa NNE 5 km/h 8 km/h 79% 0.00 mm 184.09 W/m2
06:34 30.0 °C 25.0 °C 1008.1 hPa NNE 6 km/h 12 km/h 78% 0.00 mm 197.30 W/m2
06:39 31.0 °C 26.0 °C 1008.1 hPa NNE 4 km/h 4 km/h 77% 0.00 mm 207.94 W/m2
06:44 31.0 °C 26.0 °C 1008.5 hPa WNW 1 km/h 4 km/h 75% 0.00 mm 216.85 W/m2
06:49 31.0 °C 26.0 °C 1008.5 hPa Calm     74% 0.00 mm 228.10 W/m2
06:54 32.0 °C 26.0 °C 1008.5 hPa Calm     72% 0.00 mm 236.57 W/m2
06:59 32.0 °C 26.0 °C 1008.5 hPa NW 3 km/h 4 km/h 71% 0.00 mm 247.31 W/m2
07:04 32.0 °C 26.0 °C 1008.5 hPa NW 4 km/h 4 km/h 72% 0.00 mm 251.62 W/m2
07:09 32.0 °C 26.0 °C 1008.8 hPa Calm   4 km/h 72% 0.00 mm 255.97 W/m2
07:14 32.0 °C 26.0 °C 1008.5 hPa ESE 5 km/h 12 km/h 71% 0.00 mm 264.46 W/m2
07:19 33.0 °C 26.0 °C 1008.8 hPa SE 6 km/h 8 km/h 71% 0.00 mm 274.52 W/m2
07:24 32.0 °C 26.0 °C 1008.8 hPa SSE 5 km/h 8 km/h 71% 0.00 mm 287.17 W/m2
07:29 33.0 °C 26.0 °C 1008.8 hPa SSE 10 km/h 12 km/h 70% 0.00 mm 290.45 W/m2
07:34 32.0 °C 26.0 °C 1008.8 hPa SE 8 km/h 12 km/h 70% 0.00 mm 299.25 W/m2
07:39 33.0 °C 26.0 °C 1008.8 hPa SE 10 km/h 12 km/h 69% 0.00 mm 308.21 W/m2
07:44 33.0 °C 26.0 °C 1009.1 hPa SE 10 km/h 12 km/h 69% 0.00 mm 313.59 W/m2
07:49 33.0 °C 26.0 °C 1009.1 hPa SE 17 km/h 20 km/h 68% 0.00 mm 321.94 W/m2
07:54 33.0 °C 26.0 °C 1009.1 hPa SSE 5 km/h 8 km/h 68% 0.00 mm 330.21 W/m2
07:59 34.0 °C 26.0 °C 1009.1 hPa SSE 8 km/h 8 km/h 65% 0.00 mm 338.70 W/m2
08:04 34.0 °C 26.0 °C 1009.1 hPa ESE 8 km/h 12 km/h 64% 0.00 mm 348.51 W/m2
08:09 34.0 °C 26.0 °C 1009.1 hPa East 10 km/h 16 km/h 66% 0.00 mm 353.82 W/m2
08:14 33.0 °C 26.0 °C 1009.1 hPa ESE 10 km/h 12 km/h 66% 0.00 mm 365.76 W/m2
08:19 34.0 °C 26.0 °C 1009.1 hPa NE 9 km/h 12 km/h 64% 0.00 mm 371.41 W/m2
08:24 34.0 °C 26.0 °C 1009.1 hPa North 17 km/h 20 km/h 65% 0.00 mm 377.23 W/m2
08:29 34.0 °C 26.0 °C 1009.1 hPa NNE 13 km/h 16 km/h 66% 0.00 mm 395.02 W/m2
08:34 34.0 °C 26.0 °C 1009.1 hPa ESE 13 km/h 16 km/h 64% 0.00 mm 414.37 W/m2
08:39 34.0 °C 26.0 °C 1009.1 hPa ESE 9 km/h 12 km/h 65% 0.00 mm 421.27 W/m2
08:44 34.0 °C 26.0 °C 1009.1 hPa SE 12 km/h 16 km/h 65% 0.00 mm 419.61 W/m2
08:49 34.0 °C 26.0 °C 1009.1 hPa SSE 6 km/h 8 km/h 65% 0.00 mm 424.99 W/m2
08:54 35.0 °C 26.0 °C 1009.1 hPa ENE 8 km/h 8 km/h 64% 0.00 mm 446.60 W/m2
08:59 35.0 °C 26.0 °C 1009.5 hPa North 12 km/h 16 km/h 63% 0.00 mm 472.48 W/m2
09:04 35.0 °C 26.0 °C 1009.5 hPa North 9 km/h 12 km/h 63% 0.00 mm 471.45 W/m2
09:09 35.0 °C 27.0 °C 1009.5 hPa ESE 12 km/h 16 km/h 63% 0.00 mm 476.40 W/m2
09:14 35.0 °C 26.0 °C 1009.5 hPa SE 14 km/h 16 km/h 64% 0.00 mm 471.72 W/m2
09:19 35.0 °C 26.0 °C 1009.8 hPa SSE 14 km/h 16 km/h 64% 0.00 mm 468.25 W/m2
09:24 35.0 °C 26.0 °C 1009.8 hPa SSE 10 km/h 12 km/h 63% 0.00 mm 437.03 W/m2
09:29 34.0 °C 27.0 °C 1009.8 hPa SW 13 km/h 16 km/h 69% 0.00 mm 488.63 W/m2
09:34 33.0 °C 27.0 °C 1009.8 hPa NW 12 km/h 16 km/h 71% 0.00 mm 495.24 W/m2
09:39 33.0 °C 27.0 °C 1009.8 hPa NW 10 km/h 12 km/h 71% 0.00 mm 333.48 W/m2
09:44 33.0 °C 27.0 °C 1009.5 hPa West 13 km/h 16 km/h 71% 0.00 mm 481.68 W/m2
09:49 33.0 °C 27.0 °C 1009.8 hPa NW 20 km/h 24 km/h 72% 0.00 mm 494.40 W/m2
09:54 33.0 °C 27.0 °C 1009.8 hPa West 12 km/h 16 km/h 71% 0.00 mm 489.81 W/m2
09:59 33.0 °C 27.0 °C 1009.5 hPa West 17 km/h 20 km/h 70% 0.00 mm 509.65 W/m2
10:04 34.0 °C 27.0 °C 1009.5 hPa WNW 13 km/h 16 km/h 69% 0.00 mm 525.06 W/m2
10:09 34.0 °C 27.0 °C 1009.5 hPa NW 14 km/h 16 km/h 68% 0.00 mm 303.34 W/m2
10:14 33.0 °C 27.0 °C 1009.5 hPa West 12 km/h 16 km/h 69% 0.00 mm 170.24 W/m2
10:19 33.0 °C 27.0 °C 1009.1 hPa SSW 5 km/h 8 km/h 68% 0.00 mm 512.44 W/m2
10:24 34.0 °C 26.0 °C 1009.5 hPa South 8 km/h 8 km/h 67% 0.00 mm 222.06 W/m2
10:29 33.0 °C 27.0 °C 1009.5 hPa SSW 8 km/h 8 km/h 68% 0.00 mm 312.71 W/m2
10:34 33.0 °C 27.0 °C 1009.1 hPa SSW 12 km/h 16 km/h 68% 0.00 mm 203.49 W/m2
10:39 33.0 °C 26.0 °C 1009.1 hPa South 12 km/h 16 km/h 68% 0.00 mm 546.67 W/m2
10:44 33.0 °C 27.0 °C 1009.1 hPa SSW 13 km/h 16 km/h 69% 0.00 mm 543.78 W/m2
10:49 34.0 °C 27.0 °C 1009.1 hPa SSE 5 km/h 8 km/h 68% 0.00 mm 214.06 W/m2
10:54 34.0 °C 27.0 °C 1009.1 hPa SW 8 km/h 12 km/h 68% 0.00 mm 146.58 W/m2
10:59 33.0 °C 27.0 °C 1009.1 hPa West 8 km/h 12 km/h 69% 0.00 mm 136.45 W/m2
11:04 33.0 °C 27.0 °C 1008.8 hPa WNW 9 km/h 12 km/h 70% 0.00 mm 421.25 W/m2
11:09 34.0 °C 27.0 °C 1008.8 hPa West 13 km/h 16 km/h 69% 0.00 mm 438.37 W/m2
11:14 34.0 °C 27.0 °C 1008.8 hPa SSW 14 km/h 16 km/h 68% 0.00 mm 494.40 W/m2
11:19 34.0 °C 27.0 °C 1008.8 hPa NW 11 km/h 16 km/h 68% 0.00 mm 495.87 W/m2
11:24 34.0 °C 27.0 °C 1008.5 hPa WNW 6 km/h 8 km/h 68% 0.00 mm 552.88 W/m2
11:29 35.0 °C 27.0 °C 1008.5 hPa South 8 km/h 12 km/h 67% 0.00 mm 452.81 W/m2
11:34 34.0 °C 27.0 °C 1008.1 hPa SW 7 km/h 8 km/h 66% 0.00 mm 556.87 W/m2
11:39 34.0 °C 27.0 °C 1008.1 hPa SSW 9 km/h 12 km/h 67% 0.00 mm 563.62 W/m2
11:44 35.0 °C 27.0 °C 1008.1 hPa WNW 11 km/h 16 km/h 67% 0.00 mm 573.97 W/m2
11:49 35.0 °C 27.0 °C 1008.1 hPa SSW 13 km/h 16 km/h 66% 0.00 mm 579.48 W/m2
11:54 35.0 °C 27.0 °C 1007.8 hPa WSW 6 km/h 8 km/h 63% 0.00 mm 583.98 W/m2
11:59 35.0 °C 27.0 °C 1007.8 hPa South 12 km/h 16 km/h 66% 0.00 mm 182.30 W/m2
12:04 35.0 °C 27.0 °C 1007.5 hPa WNW 8 km/h 12 km/h 67% 0.00 mm 495.90 W/m2
12:09 34.0 °C 27.0 °C 1007.5 hPa WNW 10 km/h 16 km/h 68% 0.00 mm 595.63 W/m2
12:14 35.0 °C 28.0 °C 1007.5 hPa WNW 8 km/h 12 km/h 67% 0.00 mm 579.99 W/m2
12:19 35.0 °C 28.0 °C 1007.5 hPa South 10 km/h 12 km/h 65% 0.00 mm 489.49 W/m2
12:24 35.0 °C 28.0 °C 1007.1 hPa SSW 4 km/h 8 km/h 66% 0.00 mm 213.28 W/m2
12:29 35.0 °C 28.0 °C 1007.1 hPa NW 15 km/h 20 km/h 70% 0.00 mm 571.99 W/m2
12:34 35.0 °C 28.0 °C 1006.8 hPa West 6 km/h 12 km/h 70% 0.00 mm 605.46 W/m2
12:39 35.0 °C 28.0 °C 1006.8 hPa SW 7 km/h 12 km/h 67% 0.00 mm 595.41 W/m2
12:44 36.0 °C 28.0 °C 1006.8 hPa South 12 km/h 12 km/h 66% 0.00 mm 632.62 W/m2
12:49 35.0 °C 28.0 °C 1006.8 hPa South 10 km/h 12 km/h 67% 0.00 mm 409.31 W/m2
12:54 36.0 °C 28.0 °C 1006.4 hPa SW 8 km/h 12 km/h 66% 0.00 mm 543.07 W/m2
12:59 36.0 °C 28.0 °C 1006.4 hPa SSW 9 km/h 12 km/h 67% 0.00 mm 580.21 W/m2
13:04 36.0 °C 28.0 °C 1006.4 hPa SW 9 km/h 12 km/h 66% 0.00 mm 594.84 W/m2
13:09 36.0 °C 28.0 °C 1006.4 hPa West 10 km/h 12 km/h 66% 0.00 mm 617.72 W/m2
13:14 36.0 °C 28.0 °C 1006.4 hPa SW 10 km/h 16 km/h 66% 0.00 mm 623.30 W/m2
13:19 35.0 °C 28.0 °C 1006.4 hPa WNW 10 km/h 20 km/h 68% 0.00 mm 592.86 W/m2
13:24 36.0 °C 28.0 °C 1006.1 hPa WNW 9 km/h 12 km/h 67% 0.00 mm 605.56 W/m2
13:29 35.0 °C 27.0 °C 1006.4 hPa NNW 10 km/h 16 km/h 65% 0.00 mm 566.27 W/m2
13:34 36.0 °C 28.0 °C 1006.1 hPa SSW 5 km/h 8 km/h 65% 0.00 mm 572.43 W/m2
13:39 36.0 °C 28.0 °C 1006.1 hPa WNW 10 km/h 12 km/h 66% 0.00 mm 157.30 W/m2
13:44 35.0 °C 27.0 °C 1006.1 hPa North 20 km/h 20 km/h 67% 0.00 mm 523.94 W/m2
13:49 36.0 °C 27.0 °C 1006.1 hPa North 17 km/h 24 km/h 66% 0.00 mm 546.42 W/m2
13:54 36.0 °C 28.0 °C 1006.1 hPa WSW 10 km/h 12 km/h 64% 0.00 mm 543.27 W/m2
13:59 36.0 °C 28.0 °C 1005.8 hPa South 8 km/h 12 km/h 65% 0.00 mm 523.01 W/m2
14:04 36.0 °C 28.0 °C 1005.8 hPa South 10 km/h 12 km/h 64% 0.00 mm 536.02 W/m2
14:09 38.0 °C 27.0 °C 1005.8 hPa SSE 8 km/h 12 km/h 62% 0.00 mm 557.31 W/m2
14:14 38.0 °C 26.0 °C 1005.8 hPa SE 8 km/h 12 km/h 52% 0.00 mm 562.15 W/m2
14:19 38.0 °C 26.0 °C 1005.8 hPa SE 15 km/h 24 km/h 51% 0.00 mm 597.83 W/m2
14:24 39.0 °C 26.0 °C 1005.8 hPa ESE 15 km/h 20 km/h 51% 0.00 mm 604.83 W/m2
14:29 38.0 °C 26.0 °C 1005.4 hPa ESE 12 km/h 16 km/h 51% 0.00 mm 140.73 W/m2
14:34 37.0 °C 26.0 °C 1005.4 hPa SE 10 km/h 12 km/h 52% 0.00 mm 516.16 W/m2
14:39 38.0 °C 26.0 °C 1005.4 hPa SE 14 km/h 16 km/h 51% 0.00 mm 551.02 W/m2
14:44 38.0 °C 26.0 °C 1005.1 hPa SE 14 km/h 16 km/h 51% 0.00 mm 573.34 W/m2
14:49 39.0 °C 26.0 °C 1005.4 hPa SE 10 km/h 12 km/h 50% 0.00 mm 572.60 W/m2
14:54 38.0 °C 26.0 °C 1005.1 hPa ESE 13 km/h 16 km/h 51% 0.00 mm 515.52 W/m2
14:59 38.0 °C 26.0 °C 1005.1 hPa SE 20 km/h 28 km/h 50% 0.00 mm 529.98 W/m2
15:04 38.0 °C 26.0 °C 1005.1 hPa ESE 15 km/h 24 km/h 50% 0.00 mm 534.90 W/m2
15:09 38.0 °C 26.0 °C 1005.1 hPa East 10 km/h 12 km/h 50% 0.00 mm 515.18 W/m2
15:14 38.0 °C 26.0 °C 1005.1 hPa East 5 km/h 8 km/h 51% 0.00 mm 487.41 W/m2
15:19 39.0 °C 26.0 °C 1005.1 hPa ENE 8 km/h 12 km/h 50% 0.00 mm 495.63 W/m2
15:24 39.0 °C 26.0 °C 1005.1 hPa South 7 km/h 12 km/h 48% 0.00 mm 463.38 W/m2
15:29 38.0 °C 25.0 °C 1005.4 hPa SE 16 km/h 20 km/h 50% 0.00 mm 102.64 W/m2
15:34 38.0 °C 25.0 °C 1005.1 hPa SE 8 km/h 12 km/h 50% 0.00 mm 475.93 W/m2
15:39 38.0 °C 26.0 °C 1005.1 hPa SE 14 km/h 16 km/h 51% 0.00 mm 475.93 W/m2
15:44 38.0 °C 26.0 °C 1005.1 hPa East 19 km/h 20 km/h 52% 0.00 mm 469.15 W/m2
15:49 38.0 °C 26.0 °C 1005.1 hPa SSE 20 km/h 24 km/h 53% 0.00 mm 458.34 W/m2
15:54 37.0 °C 26.0 °C 1005.1 hPa SSE 21 km/h 28 km/h 54% 0.00 mm 431.06 W/m2
15:59 37.0 °C 26.0 °C 1005.1 hPa SE 21 km/h 24 km/h 54% 0.00 mm 416.38 W/m2
16:04 37.0 °C 26.0 °C 1005.1 hPa ESE 17 km/h 20 km/h 53% 0.00 mm 415.77 W/m2
16:09 38.0 °C 26.0 °C 1005.1 hPa SE 17 km/h 20 km/h 53% 0.00 mm 410.34 W/m2
16:14 38.0 °C 26.0 °C 1005.1 hPa SE 19 km/h 24 km/h 54% 0.00 mm 399.77 W/m2
16:19 37.0 °C 26.0 °C 1005.1 hPa SE 25 km/h 32 km/h 55% 0.00 mm 396.19 W/m2
16:24 37.0 °C 26.0 °C 1005.4 hPa SE 20 km/h 28 km/h 55% 0.00 mm 375.93 W/m2
16:29 37.0 °C 26.0 °C 1005.4 hPa SE 30 km/h 32 km/h 56% 0.00 mm 350.02 W/m2
16:34 36.0 °C 26.0 °C 1005.4 hPa SE 29 km/h 32 km/h 56% 0.00 mm 340.14 W/m2
16:39 36.0 °C 26.0 °C 1005.4 hPa ESE 20 km/h 24 km/h 56% 0.00 mm 306.86 W/m2
16:44 36.0 °C 26.0 °C 1005.4 hPa ESE 18 km/h 24 km/h 55% 0.00 mm 293.19 W/m2
16:49 36.0 °C 26.0 °C 1005.4 hPa SE 20 km/h 24 km/h 56% 0.00 mm 284.08 W/m2
16:54 36.0 °C 26.0 °C 1005.8 hPa ESE 18 km/h 24 km/h 56% 0.00 mm 240.63 W/m2
16:59 36.0 °C 26.0 °C 1005.8 hPa ESE 17 km/h 20 km/h 57% 0.00 mm 227.05 W/m2
17:04 36.0 °C 26.0 °C 1005.8 hPa SE 22 km/h 32 km/h 56% 0.00 mm 223.31 W/m2
17:09 36.0 °C 26.0 °C 1005.8 hPa SE 20 km/h 24 km/h 58% 0.00 mm 208.04 W/m2
17:14 35.0 °C 26.0 °C 1005.8 hPa ESE 18 km/h 20 km/h 58% 0.00 mm 75.68 W/m2
17:19 35.0 °C 26.0 °C 1005.8 hPa SE 25 km/h 32 km/h 60% 0.00 mm 55.88 W/m2
17:24 35.0 °C 26.0 °C 1006.1 hPa SE 21 km/h 28 km/h 60% 0.00 mm 45.22 W/m2
17:29 35.0 °C 26.0 °C 1006.1 hPa SE 20 km/h 24 km/h 60% 0.00 mm 35.70 W/m2
17:34 35.0 °C 26.0 °C 1006.1 hPa SE 13 km/h 20 km/h 60% 0.00 mm 32.08 W/m2
17:39 35.0 °C 26.0 °C 1006.1 hPa SE 15 km/h 20 km/h 61% 0.00 mm 27.03 W/m2
17:44 34.0 °C 26.0 °C 1006.1 hPa SE 15 km/h 20 km/h 63% 0.00 mm 21.07 W/m2
17:49 34.0 °C 26.0 °C 1006.4 hPa SE 17 km/h 20 km/h 63% 0.00 mm 18.68 W/m2
17:54 34.0 °C 26.0 °C 1006.4 hPa SE 18 km/h 20 km/h 64% 0.00 mm 13.31 W/m2
17:59 34.0 °C 26.0 °C 1006.8 hPa SE 10 km/h 12 km/h 65% 0.00 mm 9.72 W/m2
18:04 34.0 °C 26.0 °C 1006.8 hPa SE 23 km/h 24 km/h 65% 0.00 mm 6.47 W/m2
18:09 34.0 °C 26.0 °C 1006.8 hPa ESE 17 km/h 20 km/h 65% 0.00 mm 4.38 W/m2
18:14 34.0 °C 26.0 °C 1006.8 hPa ESE 11 km/h 16 km/h 65% 0.00 mm 1.24 W/m2
18:19 34.0 °C 26.0 °C 1006.8 hPa SE 14 km/h 16 km/h 65% 0.00 mm 0.00 W/m2
18:24 34.0 °C 26.0 °C 1006.8 hPa ESE 14 km/h 16 km/h 66% 0.00 mm 0.00 W/m2
18:29 34.0 °C 26.0 °C 1007.1 hPa ESE 14 km/h 20 km/h 66% 0.00 mm 0.00 W/m2
18:34 34.0 °C 26.0 °C 1007.1 hPa ESE 9 km/h 12 km/h 67% 0.00 mm 0.00 W/m2
18:39 34.0 °C 27.0 °C 1006.8 hPa SE 12 km/h 16 km/h 68% 0.00 mm 0.00 W/m2
18:44 33.0 °C 27.0 °C 1007.1 hPa SE 9 km/h 16 km/h 69% 0.00 mm 0.00 W/m2
18:49 33.0 °C 27.0 °C 1007.1 hPa ESE 10 km/h 12 km/h 69% 0.00 mm 0.00 W/m2
18:54 33.0 °C 27.0 °C 1007.1 hPa ESE 11 km/h 16 km/h 69% 0.00 mm 0.00 W/m2
18:59 33.0 °C 27.0 °C 1007.5 hPa ESE 10 km/h 16 km/h 69% 0.00 mm 0.00 W/m2
19:04 33.0 °C 27.0 °C 1007.5 hPa East 11 km/h 16 km/h 69% 0.00 mm 0.00 W/m2
19:09 33.0 °C 27.0 °C 1007.5 hPa SE 9 km/h 12 km/h 69% 0.00 mm 0.00 W/m2
19:14 33.0 °C 27.0 °C 1007.5 hPa ESE 12 km/h 16 km/h 69% 0.00 mm 0.00 W/m2
19:19 33.0 °C 27.0 °C 1007.5 hPa ESE 15 km/h 16 km/h 69% 0.00 mm 0.00 W/m2
19:24 33.0 °C 27.0 °C 1007.5 hPa ESE 10 km/h 12 km/h 69% 0.00 mm 0.00 W/m2
19:29 33.0 °C 26.0 °C 1007.5 hPa SE 10 km/h 12 km/h 68% 0.00 mm 0.00 W/m2
19:34 33.0 °C 26.0 °C 1007.5 hPa ESE 8 km/h 12 km/h 68% 0.00 mm 0.00 W/m2
19:39 33.0 °C 26.0 °C 1007.5 hPa ESE 5 km/h 12 km/h 68% 0.00 mm 0.00 W/m2
19:44 33.0 °C 26.0 °C 1007.8 hPa SE 8 km/h 12 km/h 70% 0.00 mm 0.00 W/m2
19:49 33.0 °C 27.0 °C 1007.8 hPa SE 9 km/h 12 km/h 71% 0.00 mm 0.00 W/m2
19:54 33.0 °C 27.0 °C 1007.8 hPa ENE 5 km/h 8 km/h 71% 0.00 mm 0.00 W/m2
19:59 33.0 °C 27.0 °C 1007.8 hPa ESE 14 km/h 16 km/h 71% 0.00 mm 0.00 W/m2
20:04 32.0 °C 26.0 °C 1007.8 hPa SE 10 km/h 16 km/h 71% 0.00 mm 0.00 W/m2
20:09 32.0 °C 27.0 °C 1007.8 hPa SE 16 km/h 20 km/h 72% 0.00 mm 0.00 W/m2
20:14 32.0 °C 27.0 °C 1007.8 hPa SE 23 km/h 24 km/h 73% 0.00 mm 0.00 W/m2
20:19 32.0 °C 26.0 °C 1007.8 hPa SE 18 km/h 20 km/h 73% 0.00 mm 0.00 W/m2
20:24 32.0 °C 27.0 °C 1007.8 hPa ESE 11 km/h 16 km/h 73% 0.00 mm 0.00 W/m2
20:29 32.0 °C 26.0 °C 1008.1 hPa ESE 6 km/h 12 km/h 73% 0.00 mm 0.00 W/m2
20:34 32.0 °C 27.0 °C 1008.1 hPa ESE 9 km/h 12 km/h 74% 0.00 mm 0.00 W/m2
20:39 32.0 °C 27.0 °C 1008.1 hPa ESE 11 km/h 12 km/h 74% 0.00 mm 0.00 W/m2
20:44 32.0 °C 27.0 °C 1008.1 hPa ESE 10 km/h 12 km/h 74% 0.00 mm 0.00 W/m2
20:49 32.0 °C 27.0 °C 1008.1 hPa ESE 18 km/h 20 km/h 75% 0.00 mm 0.00 W/m2
20:54 32.0 °C 27.0 °C 1008.5 hPa SE 12 km/h 16 km/h 76% 0.00 mm 0.00 W/m2
20:59 32.0 °C 27.0 °C 1008.5 hPa SE 11 km/h 16 km/h 76% 0.00 mm 0.00 W/m2
21:04 32.0 °C 27.0 °C 1008.5 hPa SE 17 km/h 20 km/h 77% 0.00 mm 0.00 W/m2
21:09 31.0 °C 27.0 °C 1008.5 hPa SE 14 km/h 16 km/h 77% 0.00 mm 0.00 W/m2
21:14 31.0 °C 27.0 °C 1008.5 hPa SE 16 km/h 20 km/h 78% 0.00 mm 0.00 W/m2
21:19 31.0 °C 27.0 °C 1008.5 hPa SE 18 km/h 20 km/h 78% 0.00 mm 0.00 W/m2
21:24 31.0 °C 27.0 °C 1008.5 hPa SE 15 km/h 16 km/h 79% 0.00 mm 0.00 W/m2
21:29 31.0 °C 27.0 °C 1008.8 hPa SE 12 km/h 16 km/h 78% 0.00 mm 0.00 W/m2
21:34 31.0 °C 27.0 °C 1008.8 hPa SE 15 km/h 16 km/h 79% 0.00 mm 0.00 W/m2
21:39 31.0 °C 27.0 °C 1009.1 hPa SE 10 km/h 12 km/h 79% 0.00 mm 0.00 W/m2
21:44 31.0 °C 27.0 °C 1008.8 hPa SE 14 km/h 16 km/h 79% 0.00 mm 0.00 W/m2
21:49 31.0 °C 27.0 °C 1008.8 hPa SE 14 km/h 20 km/h 79% 0.00 mm 0.00 W/m2
21:54 31.0 °C 27.0 °C 1008.8 hPa SE 10 km/h 12 km/h 79% 0.00 mm 0.00 W/m2
21:59 31.0 °C 27.0 °C 1009.1 hPa SE 12 km/h 12 km/h 79% 0.00 mm 0.00 W/m2
22:04 31.0 °C 27.0 °C 1009.1 hPa SE 15 km/h 16 km/h 79% 0.00 mm 0.00 W/m2
22:09 31.0 °C 27.0 °C 1009.1 hPa SE 15 km/h 16 km/h 79% 0.00 mm 0.00 W/m2
22:14 31.0 °C 27.0 °C 1009.1 hPa SE 17 km/h 20 km/h 79% 0.00 mm 0.00 W/m2
22:19 31.0 °C 27.0 °C 1009.1 hPa ESE 10 km/h 12 km/h 79% 0.00 mm 0.00 W/m2
22:24 31.0 °C 27.0 °C 1009.1 hPa SE 12 km/h 16 km/h 79% 0.00 mm 0.00 W/m2
22:29 31.0 °C 26.0 °C 1009.1 hPa SE 10 km/h 12 km/h 78% 0.00 mm 0.00 W/m2
22:34 31.0 °C 26.0 °C 1009.1 hPa ESE 6 km/h 8 km/h 78% 0.00 mm 0.00 W/m2
22:39 31.0 °C 26.0 °C 1009.1 hPa SE 14 km/h 16 km/h 77% 0.00 mm 0.00 W/m2
22:44 31.0 °C 26.0 °C 1009.1 hPa SE 12 km/h 16 km/h 77% 0.00 mm 0.00 W/m2
22:49 31.0 °C 26.0 °C 1008.8 hPa SE 14 km/h 16 km/h 78% 0.00 mm 0.00 W/m2
22:54 31.0 °C 26.0 °C 1009.1 hPa SE 10 km/h 12 km/h 78% 0.00 mm 0.00 W/m2
22:59 31.0 °C 26.0 °C 1008.8 hPa SE 5 km/h 8 km/h 78% 0.00 mm 0.00 W/m2
23:04 31.0 °C 26.0 °C 1008.8 hPa SSE 8 km/h 12 km/h 78% 0.00 mm 0.00 W/m2
23:09 31.0 °C 26.0 °C 1008.8 hPa SE 6 km/h 12 km/h 78% 0.00 mm 0.00 W/m2
23:14 31.0 °C 27.0 °C 1008.8 hPa SE 8 km/h 12 km/h 79% 0.00 mm 0.00 W/m2
23:19 31.0 °C 26.0 °C 1008.8 hPa SE 10 km/h 12 km/h 78% 0.00 mm 0.00 W/m2
23:24 31.0 °C 26.0 °C 1008.8 hPa SE 15 km/h 16 km/h 78% 0.00 mm 0.00 W/m2
23:29 31.0 °C 26.0 °C 1008.8 hPa SE 10 km/h 12 km/h 78% 0.00 mm 0.00 W/m2
23:34 31.0 °C 26.0 °C 1008.8 hPa SE 10 km/h 12 km/h 78% 0.00 mm 0.00 W/m2
23:39 31.0 °C 26.0 °C 1008.8 hPa SE 7 km/h 8 km/h 78% 0.00 mm 0.00 W/m2
23:44 31.0 °C 26.0 °C 1008.5 hPa SE 10 km/h 12 km/h 78% 0.00 mm 0.00 W/m2
23:49 31.0 °C 26.0 °C 1008.5 hPa SE 8 km/h 12 km/h 78% 0.00 mm 0.00 W/m2
23:54 31.0 °C 26.0 °C 1008.5 hPa SE 8 km/h 12 km/h 78% 0.00 mm 0.00 W/m2
23:59 31.0 °C 26.0 °C 1008.5 hPa SE 6 km/h 8 km/h 78% 0.00 mm 0.00 W/m2
PIMOHWEATHER Philippines
Compliments of Weather Underground - 2 mb